Content
SEND FEEDBACK

Daily
Averages
Monthly
Summary
United States of America

YELLOWSTONE NATIONAL PARK, WYOMING


Home > North America > United States > Wyoming
Elevation: 7938 feet     Latitude: 44 34N     Longitude: 110 24W

WEATHER
 
SELECT A DAY
Number of Records: 295,257;   Date Range: 1/1/95 - 7/22/14
 
SHARE

PRINT THIS DATA

[ ← Previous Day ]
WEATHER ALMANAC - APRIL 27, 2013
[ Next Day → ]
[ °C ]   °F
Weather ElementAverageHighLow
Temperature39.2 °F54 °F (4:56 pm)21.9 °F (5:56 am)
Dewpoint20 °F25 °F (10:56 pm)14 °F (11:56 am)
Humidity52.9 %85 % (4:56 am)22 % (12:56 pm)
Barometer30.21 in30.34 in (8:56 am)30.05 in (11:56 pm)
Wind Speed4.1 mph11.5 mph (4:56 pm)
Wind Gust26.5 mph (12:56 pm)
Weather ElementAverage
Wind DirectionENE (76.5 °)

Weather ElementTotal
Precipitation---
Heating Degree Days27.1 (Base 65)
Averaged from 23 records on April 27, 2013
WEATHER CONDITIONS BREAKOUT
WIND DIRECTION BREAKOUT
WEATHER BY HOUR - APRIL 27, 2013
[ °C ]   °F
Local TimeTemperatureDewpointHumidityBarometerVisibilityWind DirectionWind SpeedGust SpeedPrecipitationEventsConditions
1:56 AM26.1 °F21.0 °F81 %30.30 inCalm
2:56 AM25.0 °F19.9 °F81 %30.28 inCalm
3:56 AM24.1 °F19.0 °F81 %30.28 inCalm
4:56 AM23.0 °F19.0 °F85 %30.29 inCalm
5:56 AM21.9 °F18.0 °F85 %30.29 inCalm
6:56 AM21.9 °F18.0 °F85 %30.31 inCalm
7:56 AM27.0 °F21.0 °F78 %30.32 inCalm
8:56 AM32.0 °F19.9 °F61 %30.34 inCalm
9:56 AM35.1 °F24.1 °F64 %30.32 inVariable4.6 mph
10:56 AM43.0 °F24.1 °F47 %30.28 inESE (110°)4.6 mph
11:56 AM51.1 °F14.0 °F23 %30.23 inWNW (290°)10.4 mph21.9 mph
12:56 PM52.0 °F14.0 °F22 %30.22 inWest (270°)8.1 mph26.5 mph
1:56 PM52.0 °F15.1 °F23 %30.21 inWest (270°)9.2 mph21.9 mph
2:56 PM52.0 °F16.0 °F24 %30.20 inVariable6.9 mph16.1 mph
3:56 PM52.0 °F16.0 °F24 %30.17 inVariable5.8 mph18.4 mph
4:56 PM54.0 °F19.0 °F25 %30.14 inWest (280°)11.5 mph23.0 mph
5:56 PM53.1 °F19.9 °F27 %30.14 inWest (260°)10.4 mph21.9 mph
6:56 PM53.1 °F19.9 °F27 %30.10 inVariable6.9 mph24.2 mph
7:56 PM50.0 °F23.0 °F35 %30.08 inVariable5.8 mph
8:56 PM46.9 °F24.1 °F41 %30.07 inVariable4.6 mph
9:56 PM42.1 °F24.1 °F49 %30.08 inWest (280°)4.6 mph
10:56 PM34.0 °F25.0 °F70 %30.07 inCalm
11:56 PM30.9 °F25.0 °F79 %30.05 inCalm
Hourly data recorded from KP60, located miles away from Yellowstone National Park, Wyoming







STORIES FROM OUR PARTNERS